Weather in Ekaterinovka

Russia / Saratov Oblast     52°03′01″N   44°20′42″E
temp.,
°C
wind,
m/s
gust,
m/s
humid.,
%
clouds,
%
prec.,
mm/h
press.,
hPa
HPBL,
m
11 may, tue
tue1101:00+13ene61484100 0.0 1013534
04:00+8sse51195100 1.8 1017459
07:00+8sse478996 3.3 1020588
10:00+10se68659 3.3 10221188
13:00+14se785411 0.0 10231673
16:00+15se685169 0.0 10241990
19:00+14se356023 0.0 1026895
22:00+10ene1170100 0.0 102610
12 may, wed
wed1201:00+8nne4574100 0.0 102677
04:00+9nne3890100 0.3 1024313
07:00+9nne41098100 3.0 1021443
10:00+13ese81491100 5.1 1019930
13:00+12s3892100 0.9 1021709
16:00+11sw129134 1.0 1022168
19:00+15sse1385100 0.0 1022355
22:00+13ne3393100 0.1 102254
13 may, thu
thu1301:00+13e41192100 0.0 1021298
04:00+13e51287100 0.3 1019327
07:00+13e6138275 1.1 1019435
10:00+15ese61183100 1.4 1019565
13:00+18se7977100 0.0 1019730
16:00+21se786848 1.2 10181180
19:00+19sse47775 3.3 1018310
22:00+17se128232 3.6 101811
14 may, fri
fri1401:00+15e2288100 0.0 101820
04:00+14se2286100 0.0 101911
07:00+16se228496 0.0 101952
10:00+21ese456775 0.0 1019398
13:00+25se6755100 0.0 10191156
16:00+25sse684889 0.0 10181214
19:00+23se511624 0.0 1017419
22:00+18se411745 0.0 1017167
15 may, sat
sat1501:00+17se61660100 0.0 1017300
04:00+16se5146495 0.0 1017222
07:00+16sse51563100 0.0 1017284
10:00+22sse61451100 0.0 1017566
13:00+25sse81344100 0.0 1017957
16:00+26sse713445 0.0 10161772
19:00
22:00+19se6175784 0.0 1014313